EDT,Max TemperatureF,Mean TemperatureF,Min TemperatureF,Max Dew PointF,MeanDew PointF,Min DewpointF,Max Humidity, Mean Humidity, Min Humidity, Max Sea Level PressureIn, Mean Sea Level PressureIn, Min Sea Level PressureIn, Max VisibilityMiles, Mean VisibilityMiles, Min VisibilityMiles, Max Wind SpeedMPH, Mean Wind SpeedMPH, Max Gust SpeedMPH,PrecipitationIn, CloudCover, Events, WindDirDegrees
2013-8-1,82,73,64,73,70,64,100,88,66,30.05,29.96,29.90,10,10,5,12,3,23,0.44,6,Rain,221
2013-8-2,84,73,62,72,67,63,100,83,54,30.07,30.02,29.95,10,8,0,8,2,,0.11,2,Fog-Rain,253
2013-8-3,86,76,66,73,71,66,100,91,62,30.05,30.01,29.95,10,7,1,8,1,,0.31,3,Rain,221
2013-8-4,82,72,62,72,65,55,100,80,42,30.07,30.00,29.94,10,8,2,10,2,9,0.00,4,,1
2013-8-5,78,69,60,68,62,57,100,78,50,30.14,30.08,30.04,10,9,2,9,2,,0.00,6,,112
2013-8-6,80,72,64,68,65,63,100,82,61,30.10,30.07,30.03,10,10,5,13,4,18,0.16,6,Rain,211
2013-8-7,82,73,64,72,68,64,100,84,58,30.14,30.10,30.07,10,10,7,10,2,16,0.00,4,Rain,193
2013-8-8,82,75,68,73,70,68,100,85,62,30.11,30.08,30.04,10,10,5,9,2,,0.00,3,,213
2013-8-9,87,79,71,75,72,70,100,83,58,30.08,30.05,30.01,10,10,4,13,4,20,0.00,2,Rain,229
2013-8-10,89,80,71,75,72,70,100,88,58,30.13,30.09,30.06,10,9,1,13,2,16,0.25,3,Rain,242
2013-8-11,87,78,69,77,72,70,100,91,58,30.16,30.11,30.06,10,6,0,9,0,17,0.00,5,Fog-Rain,226
2013-8-12,87,78,69,75,71,68,100,82,52,30.09,30.04,29.99,10,8,0,12,1,37,0.20,2,Fog-Rain,320
2013-8-13,84,76,69,73,71,70,100,92,66,30.02,29.90,29.82,10,9,2,8,2,,0.21,3,Rain,243
2013-8-14,71,65,59,72,63,59,100,85,64,30.14,30.00,29.87,10,10,7,9,2,,0.00,5,,37
2013-8-15,73,64,55,61,56,50,100,82,44,30.21,30.16,30.13,10,9,2,9,2,9,0.00,0,,39
2013-8-16,71,62,53,63,56,54,100,84,57,30.22,30.18,30.14,10,9,2,8,1,,0.00,1,,56
2013-8-17,68,62,57,68,63,57,100,97,88,30.23,30.20,30.17,10,8,2,10,4,,0.10,7,Rain,33
2013-8-18,71,68,64,70,67,64,100,96,78,30.25,30.20,30.15,10,9,2,8,4,,0.20,7,Rain,9
2013-8-19,73,68,64,70,67,64,100,97,83,30.24,30.18,30.14,10,8,0,5,1,,0.24,7,Fog-Rain,156
2013-8-20,78,70,62,72,67,63,100,90,69,30.23,30.19,30.15,10,7,0,4,0,,0.00,4,Fog,130
2013-8-21,84,76,69,75,71,70,100,96,66,30.27,30.21,30.13,10,8,1,9,1,,0.66,5,Rain,216
2013-8-22,86,77,68,73,70,66,100,85,51,30.18,30.11,30.03,10,8,1,6,1,,0.00,2,,257
2013-8-23,84,74,64,72,68,63,100,87,62,30.14,30.04,29.98,10,9,4,12,2,18,0.00,2,,333
2013-8-24,80,70,60,63,61,55,100,78,42,30.35,30.25,30.14,10,10,7,15,5,23,0.00,3,,34
2013-8-25,77,65,53,64,58,54,100,82,44,30.44,30.37,30.32,10,8,1,10,3,,0.00,1,,56
2013-8-26,80,65,50,63,57,50,100,80,42,30.36,30.26,30.15,10,8,1,7,0,,0.00,0,,220
2013-8-27,86,72,59,75,67,59,100,83,48,30.15,30.05,30.00,10,8,0,7,2,,0.00,1,Fog,266
2013-8-28,80,72,64,73,71,64,100,92,79,30.03,29.97,29.89,10,5,0,10,1,,0.00,2,Fog-Rain,217
2013-8-29,82,75,68,72,70,68,100,84,62,30.06,29.96,29.88,10,8,3,15,4,17,0.00,4,,17
2013-8-30,84,72,60,70,66,61,100,84,51,30.11,30.04,29.98,10,6,0,6,0,,0.00,2,Fog,168
2013-8-31,86,75,64,73,69,64,100,85,58,30.00,29.96,29.90,10,8,0,12,3,,0.07,3,Fog-Rain,212